AirNav   ATP
 
 319 users online  

4VA3 Flying W Airport
Richmond, Virginia, USA

GOING TO RICHMOND?


FAA INFORMATION EFFECTIVE 09 NOVEMBER 2017

Location

FAA Identifier: 4VA3
Lat/Long: 37-25-47.5320N / 077-23-39.9340W
37-25.792200N / 077-23.665567W
37.4298700 / -77.3944261
(estimated)
Elevation: 101 ft. / 30.8 m (surveyed)
Variation: 09W (1985)
From city: 8 miles SE of RICHMOND, VA
Time zone: UTC -5 (UTC -4 during Daylight Saving Time)
Zip code: 23231

Airport Operations

Airport use: Private use. Permission required prior to landing
Activation date: 03/1978
Control tower: no
ARTCC: WASHINGTON CENTER
FSS: LEESBURG FLIGHT SERVICE STATION
Attendance: CONTINUOUS
Wind indicator: yes
Segmented circle: no

Airport Communications

WX ASOS at RIC (6 nm NE): PHONE 804-236-1091
WX AWOS-3PT at FCI (6 nm W): 128.625 (804-271-8426)
WX AWOS-3 at W96 (13 nm E): 119.875 (804-932-8863)
WX AWOS-3 at PTB (16 nm S): 133.325 (804-861-5551)
WX ASOS at OFP (17 nm N): 119.025 (804-752-2902)

Nearby radio navigation aids

VOR radial/distance  VOR name  Freq  Var
RICr228/5.6RICHMOND VORTAC114.1009W
HPWr301/14.6HOPEWELL VORTAC112.0006W
FAKr112/21.5FLAT ROCK VORTAC113.3006W
HCMr275/32.6HARCUM VORTAC108.8007W

 
NDB name  Hdg/Dist  Freq  Var  ID
PETERSBURG034/19.928408WPTB .--. - -...
WAKEFIELD336/32.827411WAKQ .- -.- --.-
BLACKSTONE069/36.032609WBKT -... -.- -

Airport Services

Runway Information

Runway 5/23

Dimensions: 2250 x 50 ft. / 686 x 15 m
Surface: turf
Runway edge markings: 05/23 RWY MARKED WITH WHITE CONES.
RUNWAY 5  RUNWAY 23
Traffic pattern: leftleft
Obstructions: none40 ft. pline, marked, 30 ft. from runway

Airport Ownership and Management from official FAA records

Ownership: Privately-owned
Owner: GERALD WEAVER
8570 OSBORNE TURNPIKE
RICHMOND, VA 23231
Phone 804-795-1725
Manager: G P WEAVER
8570 OSBORNE TURNPIKE
RICHMOND, VA 23231
Phone 804-795-1725

Airport Operational Statistics

Aircraft based on the field: 5
Single engine airplanes: 4
Ultralights: 1
    

Instrument Procedures

There are no published instrument procedures at 4VA3.

Some nearby airports with instrument procedures:

KRIC - Richmond International Airport (6 nm NE)
KFCI - Richmond Executive Airport-Chesterfield County (6 nm W)
W96 - New Kent County Airport (13 nm E)
KPTB - Dinwiddie County Airport (16 nm S)
KOFP - Hanover County Municipal Airport (17 nm N)
 
Loc | Ops | Rwys | IFR | FBO | Links
Com | Nav | Svcs | Stats | Notes


 
Area around 4VA3 (Flying W Airport)
 
Road maps at: MapQuest Bing Google
 
Aerial photo
No photo
 
Sectional chart

 
Airport distance calculator
Flying to Flying W Airport? Find the distance to fly.

From to 4VA3

Sunrise and sunset
Times for 25-Nov-2017
 Local
(UTC-5)
 Zulu
(UTC)
Morning civil twilight06:3211:32
Sunrise07:0012:00
Sunset16:5321:53
Evening civil twilight17:2122:21

Current date and time
Zulu (UTC)  25-Nov-2017 09:30:09
Local (UTC-5)  25-Nov-2017 04:30:09
 
METAR
KRIC 
6nm NE 
250854Z 00000KT 10SM FEW250 M01/M03 A2989 RMK AO2 SLP128 T10111028 58015 $
KW96 
13nm E 
250915Z AUTO 00000KT 10SM CLR M02/M02 A2989 RMK AO1 T10221022
KOFP 
16nm N 
250854Z AUTO 00000KT 5SM BR CLR M01/M01 A2990 RMK AO2 SLP126 I3001 T10061011 58014
KPTB 
17nm S 
250916Z AUTO 00000KT 10SM CLR A2990 RMK AO2
TAF
KRIC 
6nm NE 
250530Z 2506/2606 00000KT P6SM SKC FM251500 23007KT P6SM SKC
NOTAMs
Click for the latest NOTAMs
NOTAMs are issued by the DoD/FAA and will open in a separate window not controlled by AirNav.

 

 
 

Would you like to see your business listed on this page?

 If your business provides an interesting product or service to pilots, flight crews, aircraft, or users of the Flying W Airport, you should consider listing it here.  To start the listing process, click on the button below
 
Add a business
 

Other Pages about Flying W Airport

Update a link
 
Copyright © AirNav, LLC. All rights reserved. Privacy Policy  Contact